Regional Weather Roundup
Issued by NWS Columbia, SC

Home | Current Version | Previous Version | Text Only | Print | Product List | Glossary On
Versions: 1 2 3 4 5 6 7 8 9 10 11 12 13 14 15 16 17 18 19 20 21 22 23 24 25 26 27 28 29 30 31 32 33 34 35 36 37 38 39 40 41 42 43 44 45 46 47 48 49 50
000
ASUS42 KCAE 290710
RWRCAE
REGIONAL WEATHER ROUNDUP
NATIONAL WEATHER SERVICE COLUMBIA SC
300 AM EDT MON MAY 29 2017

NOTE: "FAIR" INDICATES FEW OR NO CLOUDS BELOW 12,000 FEET WITH NO
SIGNIFICANT WEATHER AND/OR OBSTRUCTIONS TO VISIBILITY.

NOT ALL STATIONS ARE QUALITY CONTROLLED BY THE NATIONAL
WEATHER SERVICE. USE DATA WITH CAUTION...ESPECIALLY
DEWPOINT OBSERVATIONS.

SCZ001>056-GAZ040-063>065-077-290800-
...UPSTATE SOUTH CAROLINA...

CITY           SKY/WX    TMP DP  RH WIND       PRES   REMARKS
ANDERSON       CLEAR     68  64  87 W6        29.93R
SPARTANBURG    CLEAR     63  61  94 NW3       29.92R
CLEMSON        CLEAR     68  63  84 W5        29.95R
GREENVILLE     CLEAR     69  61  75 NW5       29.94R
GREENWOOD      CLEAR     69  63  81 W6        29.94R
GREER          CLEAR     64  62  93 W5        29.92R
ROCK HILL      CLEAR     65  63  93 CALM      29.91R
CHESTER        SUNNY     64  64 100 SW3       29.91R
LAURENS        SUNNY     68  64  88 W5        29.92R


...CENTRAL SOUTH CAROLINA...

CITY           SKY/WX    TMP DP  RH WIND       PRES   REMARKS
COLUMBIA APT   CLEAR     71  67  87 W3        29.88F
COLUMBIA OWENS CLEAR     71  69  93 CALM      29.89F
MCENTIRE ANGB  PTCLDY    66  66 100 CALM      29.88F FOG
ORANGEBURG     PTCLDY    70  68  93 SW3       29.90F
SUMTER SHAW    CLOUDY    72  68  87 W6        29.86F
NEWBERRY       SUNNY     68  64  88 CALM      29.93S
AIKEN          FAIR      68  66  94 SW3       29.95S
BARNWELL       FAIR      73  70  88 CALM      29.91S
MANNING        FAIR      73  59  60 NW10G23   29.89F
CAMDEN         FAIR      70  68  94 CALM      29.89F
LANCASTER      SUNNY     66  66 100 CALM      29.89S
WINNSBORO      SUNNY     68  64  88 W3        29.89F


...EASTERN AND COASTAL SOUTH CAROLINA...

CITY           SKY/WX    TMP DP  RH WIND       PRES   REMARKS
N MYRTLE BCH   CLEAR     72  71  97 W3        29.87R
CONWAY         FAIR      68  68 100 CALM      29.88S FOG
MARION         FAIR      70  68  94 CALM      29.88S
HARTSVILLE     FAIR      66  64  94 CALM      29.88S
FLORENCE       CLEAR     69  69 100 SW6       29.88S
DARLINGTON     CLEAR     72  70  93 SW8       29.88S
CHARLESTON APT PTCLDY    77  72  84 SW9       29.89F
MOUNT PLEASANT FAIR      77  73  88 SW7       29.89F
WALTERBORO     MOSUNNY   75  68  78 W8        29.91F
BEAUFORT       CLEAR     77  69  76 W8        29.92S


...EASTERN GEORGIA...

CITY           SKY/WX    TMP DP  RH WIND       PRES   REMARKS
AUGUSTA BUSH F CLEAR     71  68  90 CALM      29.91R
AUGUSTA DANIEL CLEAR     75  65  70 CALM      29.93R
THOMSON        CLEAR     69  66  88 NW5       29.98S
WASHINGTON     FAIR      70  68  94 W7        29.95R
CLAXTON        FAIR      74  74 100 CALM      29.95S
SYLVANIA       PTSUNNY   76  70  82 CALM      29.94S
STATESBORO     CLOUDY    77  69  75 W6        29.94S
SAVANNAH       CLEAR     76  66  71 W8        29.95R


...SOUTHERN NORTH CAROLINA...

CITY           SKY/WX    TMP DP  RH WIND       PRES   REMARKS
CHARLOTTE      PTCLDY    66  64  93 NW5       29.90S
MONROE         CLEAR     66  62  87 CALM      29.88F
WADESBORO      SUNNY     65  63  93 CALM      29.87F
ROCKINGHAM     SUNNY     68  68 100 CALM      29.87S
RUTHERFORDTON  PTCLDY    64  61  90 NW5       29.93S
ASHEVILLE      PTCLDY    58  56  93 S6        29.99S

$$



USA.gov is the U.S. government's official web portal to all federal, state and local government web resources and services.